Regional Weather Roundup
Issued by NWS

Home | Current Version | Previous Version | Text Only | Print | Product List | Glossary On
Versions: 1 2 3 4 5 6 7 8 9 10 11 12 13 14 15 16 17 18 19 20 21 22 23 24 25 26 27 28 29 30 31 32 33 34 35 36 37 38 39 40 41 42 43 44 45 46 47 48 49 50
000
ASUS43 KFSD 181810
RWRSD

WEATHER ROUNDUP FOR SOUTH DAKOTA
NATIONAL WEATHER SERVICE SIOUX FALLS SD
100 PM CDT FRI APR 18 2014

NOTE: "FAIR" INDICATES FEW OR NO CLOUDS BELOW 12,000 FEET WITH NO
SIGNIFICANT WEATHER AND/OR OBSTRUCTIONS TO VISIBILITY.


SDZ001>005-009-010-012>017-181900-
NORTHWEST AND NORTH CENTRAL SOUTH DAKOTA

CITY           SKY/WX    TMP DP  RH WIND       PRES   REMARKS
BUFFALO          N/A     55  37  50 SE18      29.68F
FAITH            N/A     55  37  50 SE20G30   29.78F
MOBRIDGE       MOSUNNY   58  35  42 S24G30    29.85F
$$

SDZ012>016-024>037-041>051-057-063-072>074-181900-
SOUTHWEST AND SOUTH CENTRAL SOUTH DAKOTA

CITY           SKY/WX    TMP DP  RH WIND       PRES   REMARKS
RAPID CTY ARPT PTSUNNY   74  39  28 S18       29.74F
PIERRE         PTSUNNY   64  40  41 SE18G25   29.83F
CUSTER         MOSUNNY   61  28  28 SW16G30   29.86S
ELLSWORTH AFB  PTSUNNY   69  41  35 S15       29.73F
PHILIP         PTSUNNY   66  40  38 SE14      29.78F
PINE RIDGE     MOSUNNY   71  42  35 S18       29.81F
SPEARFISH      FAIR      59  43  55 NE8       29.74F
WINNER         FAIR      71  36  27 S32G41    29.86F
$$

SDZ004>011-016>023-039-040-181900-
NORTHEAST SOUTH DAKOTA

CITY           SKY/WX    TMP DP  RH WIND       PRES   REMARKS
ABERDEEN       PTSUNNY   56  36  47 SE24G36   29.99F
WATERTOWN      MOSUNNY   49  35  58 SE18G30   30.07F
SISSETON         N/A     44  33  65 SE30G36   30.15F
$$

SDZ017-020-022-023-036>040-048>070-181900-
SOUTHEAST SOUTH DAKOTA

CITY           SKY/WX    TMP DP  RH WIND       PRES   REMARKS
SIOUX FALLS    MOSUNNY   60  34  37 SE23G32   30.12F
HURON          MOSUNNY   62  37  39 S28G41    29.95F
CHAMBERLAIN      N/A     68  38  33 S32G39    29.90F
MITCHELL       SUNNY     66  40  38 S33G47    29.99F
YANKTON        SUNNY     63  36  36 S29G36    30.09F
$$

ABBREVIATIONS USED IN REMARKS
   TC - TEMPERATURE IN CELSIUS
  WCI - WIND CHILL INDEX
   HX - HEAT INDEX
  VSB - VISIBILITY




USA.gov is the U.S. government's official web portal to all federal, state and local government web resources and services.